This is the latest recevied weather packets stored in our database for station/object SP1BMW-13. If no packets are shown the sender has not sent any weather packets the latest 10 day(s).
| Time | Temp. | Humidity | Pressure | Rain* | Wind** | Luminosity | Snow |
|---|---|---|---|---|---|---|---|
| 1788087637 | 23.89° C | 58% | 1007.7 hPa | 0 mm | 1.34 m/s, 236° | 732 W/m² | - |
| 1788087578 | 23.89° C | 58% | 1007.9 hPa | 0 mm | 1.34 m/s, 294° | 562 W/m² | - |
| 1788087517 | 23.89° C | 58% | 1007.7 hPa | 0 mm | 0.89 m/s, 76° | 430 W/m² | - |
| 1788087457 | 23.89° C | 58% | 1008 hPa | 0 mm | 0.89 m/s, 299° | 107 W/m² | - |
| 1788087403 | 23.89° C | 58% | 1007.7 hPa | 0 mm | 0.45 m/s, 252° | 95 W/m² | - |
| 1788087340 | 23.89° C | 57% | 1008 hPa | 0 mm | 0.45 m/s, 188° | 93 W/m² | - |
| 1788087277 | 24.44° C | 57% | 1007.7 hPa | 0 mm | 0.45 m/s, 278° | 87 W/m² | - |
| 1788087217 | 24.44° C | 56% | 1007.8 hPa | 0 mm | 1.34 m/s, 248° | 69 W/m² | - |
| 1788087157 | 24.44° C | 56% | 1007.9 hPa | 0 mm | 1.34 m/s, 279° | 56 W/m² | - |
| 1788087097 | 24.44° C | 56% | 1007.7 hPa | 0 mm | 0.89 m/s, 198° | 52 W/m² | - |
| 1788087037 | 24.44° C | 56% | 1007.9 hPa | 0 mm | 0.89 m/s, 222° | 54 W/m² | - |
| 1788086977 | 24.44° C | 56% | 1007.7 hPa | 0 mm | 1.34 m/s, 274° | 60 W/m² | - |
| 1788086917 | 24.44° C | 55% | 1007.8 hPa | 0 mm | 2.24 m/s, 225° | 64 W/m² | - |
| 1788086857 | 25° C | 54% | 1007.7 hPa | 0 mm | 1.79 m/s, 159° | 63 W/m² | - |
| 1788086797 | 25° C | 54% | 1007.8 hPa | 0 mm | 0.89 m/s, 282° | 61 W/m² | - |
| 1788086739 | 25° C | 53% | 1007.9 hPa | 0 mm | 1.79 m/s, 255° | 61 W/m² | - |
| 1788086679 | 25.56° C | 54% | 1007.8 hPa | 0 mm | 2.24 m/s, 283° | 64 W/m² | - |
| 1788086617 | 25.56° C | 53% | 1007.7 hPa | 0 mm | 0.89 m/s, 339° | 66 W/m² | - |
| 1788086557 | 25.56° C | 53% | 1007.8 hPa | 0 mm | 0.45 m/s, 226° | 66 W/m² | - |
| 1788086497 | 25.56° C | 52% | 1007.8 hPa | 0 mm | 0.89 m/s, 191° | 79 W/m² | - |
| 1788086437 | 25.56° C | 52% | 1007.8 hPa | 0 mm | 0.89 m/s, 341° | 106 W/m² | - |
| 1788086377 | 25.56° C | 52% | 1007.8 hPa | 0 mm | 0.89 m/s, 282° | 136 W/m² | - |
| 1788086317 | 25.56° C | 52% | 1007.6 hPa | 0 mm | 0.89 m/s, 304° | 158 W/m² | - |
| 1788086256 | 25.56° C | 53% | 1007.8 hPa | 0 mm | 0.89 m/s, 303° | 201 W/m² | - |
| 1788086197 | 25.56° C | 52% | 1007.6 hPa | 0 mm | 0.45 m/s, 11° | 240 W/m² | - |
* Rain latest hour (hover to see other rain measurements)
** Current wind speed in m/s (hover to see current wind gust speed)